TimeCST,TemperatureF,Dew PointF,Humidity,Sea Level PressureIn,VisibilityMPH,Wind Direction,Wind SpeedMPH,Gust SpeedMPH,PrecipitationIn,Events,Conditions,WindDirDegrees,DateUTC
12:15 AM,26.6,19.4,74,30.23,10.0,South,11.5,-,N/A,,Clear,170,2013-01-07 06:15:00
12:35 AM,26.6,19.4,74,30.22,10.0,South,12.7,-,N/A,,Clear,180,2013-01-07 06:35:00
12:55 AM,28.4,19.4,69,30.22,10.0,South,12.7,-,N/A,,Clear,180,2013-01-07 06:55:00
1:15 AM,28.4,19.4,69,30.23,10.0,South,10.4,-,N/A,,Clear,180,2013-01-07 07:15:00
1:35 AM,28.4,19.4,69,30.22,10.0,South,12.7,-,N/A,,Clear,190,2013-01-07 07:35:00
1:55 AM,28.4,19.4,69,30.22,10.0,South,12.7,-,N/A,,Clear,180,2013-01-07 07:55:00
2:15 AM,28.4,19.4,69,30.23,10.0,South,11.5,-,N/A,,Clear,180,2013-01-07 08:15:00
2:35 AM,28.4,19.4,69,30.23,10.0,South,12.7,-,N/A,,Clear,190,2013-01-07 08:35:00
2:55 AM,26.6,19.4,74,30.23,10.0,South,10.4,-,N/A,,Clear,190,2013-01-07 08:55:00
3:15 AM,26.6,19.4,74,30.22,10.0,South,11.5,-,N/A,,Clear,180,2013-01-07 09:15:00
3:35 AM,26.6,19.4,74,30.22,10.0,South,10.4,-,N/A,,Clear,180,2013-01-07 09:35:00
3:55 AM,26.6,19.4,74,30.21,10.0,South,11.5,-,N/A,,Clear,180,2013-01-07 09:55:00
4:15 AM,26.6,19.4,74,30.20,10.0,South,11.5,-,N/A,,Clear,170,2013-01-07 10:15:00
4:35 AM,26.6,19.4,74,30.19,10.0,South,11.5,-,N/A,,Clear,170,2013-01-07 10:35:00
4:55 AM,26.6,19.4,74,30.19,10.0,South,11.5,-,N/A,,Clear,170,2013-01-07 10:55:00
5:15 AM,26.6,19.4,74,30.18,10.0,South,11.5,-,N/A,,Clear,170,2013-01-07 11:15:00
5:35 AM,26.6,19.4,74,30.17,10.0,South,12.7,-,N/A,,Clear,180,2013-01-07 11:35:00
5:55 AM,28.4,19.4,69,30.18,10.0,South,11.5,-,N/A,,Clear,190,2013-01-07 11:55:00
6:15 AM,28.4,19.4,69,30.17,10.0,South,13.8,-,N/A,,Clear,180,2013-01-07 12:15:00
6:35 AM,28.4,21.2,74,30.16,10.0,South,13.8,-,N/A,,Clear,180,2013-01-07 12:35:00
6:55 AM,28.4,21.2,74,30.16,10.0,South,12.7,-,N/A,,Clear,180,2013-01-07 12:55:00
7:15 AM,28.4,19.4,69,30.17,10.0,South,9.2,-,N/A,,Clear,190,2013-01-07 13:15:00
7:35 AM,28.4,21.2,74,30.16,10.0,South,13.8,-,N/A,,Clear,180,2013-01-07 13:35:00
7:55 AM,30.2,21.2,69,30.15,10.0,South,16.1,-,N/A,,Clear,190,2013-01-07 13:55:00
8:35 AM,33.8,21.2,60,30.13,10.0,South,20.7,-,N/A,,Clear,180,2013-01-07 14:35:00
9:15 AM,35.6,23.0,60,30.12,10.0,South,20.7,-,N/A,,Clear,190,2013-01-07 15:15:00
9:35 AM,37.4,24.8,60,30.12,10.0,South,20.7,25.3,N/A,,Clear,190,2013-01-07 15:35:00
9:55 AM,39.2,24.8,56,30.14,10.0,SSW,17.3,23.0,N/A,,Clear,200,2013-01-07 15:55:00
10:15 AM,42.8,24.8,49,30.14,10.0,SSW,17.3,29.9,N/A,,Clear,210,2013-01-07 16:15:00
10:35 AM,42.8,23.0,46,30.13,10.0,SSW,18.4,25.3,N/A,,Clear,210,2013-01-07 16:35:00
10:55 AM,42.8,23.0,46,30.12,10.0,SSW,21.9,29.9,N/A,,Clear,200,2013-01-07 16:55:00
11:35 AM,46.4,23.0,40,30.09,10.0,SSW,20.7,24.2,N/A,,Clear,200,2013-01-07 17:35:00
11:55 AM,46.4,21.2,37,30.08,10.0,SSW,15.0,27.6,N/A,,Clear,210,2013-01-07 17:55:00
12:15 PM,46.4,21.2,37,30.06,10.0,SSW,20.7,27.6,N/A,,Clear,200,2013-01-07 18:15:00
12:35 PM,48.2,21.2,34,30.05,10.0,SSW,20.7,25.3,N/A,,Clear,200,2013-01-07 18:35:00
1:15 PM,48.2,21.2,34,30.03,10.0,SSW,19.6,27.6,N/A,,Clear,200,2013-01-07 19:15:00
1:35 PM,48.2,23.0,37,30.03,10.0,SSW,16.1,21.9,N/A,,Clear,210,2013-01-07 19:35:00
1:55 PM,48.2,23.0,37,30.03,10.0,SSW,17.3,24.2,N/A,,Clear,200,2013-01-07 19:55:00
2:15 PM,48.2,24.8,40,30.02,10.0,South,19.6,24.2,N/A,,Clear,190,2013-01-07 20:15:00
2:35 PM,48.2,24.8,40,30.03,10.0,SSW,15.0,21.9,N/A,,Clear,200,2013-01-07 20:35:00
2:55 PM,48.2,24.8,40,30.03,10.0,South,16.1,-,N/A,,Clear,190,2013-01-07 20:55:00
3:15 PM,48.2,24.8,40,30.03,10.0,SSW,15.0,-,N/A,,Clear,200,2013-01-07 21:15:00
3:35 PM,46.4,26.6,46,30.04,10.0,South,11.5,-,N/A,,Clear,190,2013-01-07 21:35:00
3:55 PM,46.4,26.6,46,30.04,10.0,South,10.4,-,N/A,,Clear,190,2013-01-07 21:55:00
4:15 PM,46.4,26.6,46,30.04,10.0,South,10.4,-,N/A,,Clear,190,2013-01-07 22:15:00
4:35 PM,44.6,26.6,49,30.04,10.0,SSW,10.4,-,N/A,,Clear,200,2013-01-07 22:35:00
4:55 PM,42.8,26.6,53,30.05,10.0,South,10.4,-,N/A,,Clear,190,2013-01-07 22:55:00
5:15 PM,39.2,26.6,61,30.04,10.0,South,8.1,-,N/A,,Clear,190,2013-01-07 23:15:00
5:35 PM,39.2,26.6,61,30.04,10.0,South,6.9,-,N/A,,Clear,180,2013-01-07 23:35:00
5:55 PM,39.2,26.6,61,30.04,10.0,South,8.1,-,N/A,,Clear,170,2013-01-07 23:55:00
6:15 PM,37.4,26.6,65,30.03,10.0,South,10.4,-,N/A,,Clear,170,2013-01-08 00:15:00
6:35 PM,37.4,26.6,65,30.04,10.0,South,9.2,-,N/A,,Clear,180,2013-01-08 00:35:00
6:55 PM,37.4,26.6,65,30.05,10.0,South,9.2,-,N/A,,Clear,180,2013-01-08 00:55:00
7:15 PM,37.4,26.6,65,30.05,10.0,South,9.2,-,N/A,,Clear,180,2013-01-08 01:15:00
7:35 PM,37.4,26.6,65,30.05,10.0,South,9.2,-,N/A,,Clear,180,2013-01-08 01:35:00
7:55 PM,37.4,26.6,65,30.05,10.0,South,9.2,-,N/A,,Clear,180,2013-01-08 01:55:00
8:15 PM,35.6,26.6,70,30.05,10.0,South,8.1,-,N/A,,Clear,180,2013-01-08 02:15:00
8:35 PM,35.6,26.6,70,30.04,10.0,SSW,5.8,-,N/A,,Clear,200,2013-01-08 02:35:00
8:55 PM,35.6,26.6,70,30.05,10.0,SSW,3.5,-,N/A,,Clear,200,2013-01-08 02:55:00
9:15 PM,35.6,26.6,70,30.04,10.0,South,5.8,-,N/A,,Clear,190,2013-01-08 03:15:00
9:35 PM,35.6,26.6,70,30.04,10.0,South,3.5,-,N/A,,Clear,190,2013-01-08 03:35:00
9:55 PM,35.6,26.6,70,30.04,10.0,SSW,4.6,-,N/A,,Clear,210,2013-01-08 03:55:00
10:15 PM,35.6,26.6,70,30.04,10.0,Calm,Calm,-,N/A,,Clear,0,2013-01-08 04:15:00
10:35 PM,33.8,26.6,75,30.04,10.0,South,4.6,-,N/A,,Clear,180,2013-01-08 04:35:00
10:55 PM,32.0,24.8,75,30.04,10.0,Calm,Calm,-,N/A,,Clear,0,2013-01-08 04:55:00
11:15 PM,32.0,24.8,75,30.04,10.0,Calm,Calm,-,N/A,,Clear,0,2013-01-08 05:15:00
11:35 PM,30.2,24.8,80,30.04,10.0,Calm,Calm,-,N/A,,Clear,0,2013-01-08 05:35:00
11:55 PM,30.2,24.8,80,30.04,10.0,SSE,3.5,-,N/A,,Clear,150,2013-01-08 05:55:00